Troy, AL

2:56 PM CDT on June 23, 2017 (GMT -0500)
Troy Municipal

Weather History for KTOI - November, 2011

Change the Weather History Date:

Wednesday, November 9, 2011

  Actual Average Record
Temperature  
Mean Temperature 63 °F 58 °F  
Max Temperature 75 °F 71 °F 82 °F (2005)
Min Temperature 51 °F 45 °F 30 °F (2007)
Degree Days  
Heating Degree Days 2 8  
Month to date heating degree days 70 65  
Since 1 July heating degree days 226 163  
Growing Degree Days 12 (Base 50)    
Moisture  
Dew Point 56 °F    
Average Humidity 79    
Maximum Humidity 100    
Minimum Humidity 57    
Precipitation  
Precipitation 0.36 in 0.12 in 0.90 in (2000)
Month to date precipitation 0.58 1.09  
Year to date precipitation 29.88 46.23  
Snow  
Snow 0.00 in - - ()
Month to date snowfall 0.0  
Since 1 July snowfall 0.0  
Since 1 September snowfall 0.0  
Snow Depth 0.00 in    
Sea Level Pressure  
Sea Level Pressure 30.05 in    
Wind  
Wind Speed 5 mph (WNW)    
Max Wind Speed 22 mph    
Max Gust Speed 29 mph    
Visibility 8 miles    
Events Rain    
T = Trace of Precipitation, MM = Missing Value Source: NWS Daily Summary

Daily Weather History Graph

Daily Weather History Graph

Search for Another Location

Airport or City:

Trip Planner

Search our weather history database for the weather conditions in past years. The results will help you decide how hot, cold, wet, or windy it might be!

Date:

Astronomy

Nov. 09, 2011 Rise Set
Actual Time 6:06 AM CST 4:48 PM CST
Civil Twilight 5:41 AM CST 5:13 PM CST
Nautical Twilight 5:12 AM CST 5:43 PM CST
Astronomical Twilight 4:43 AM CST 6:11 PM CST
Moon 4:00 PM CST (11/9) 5:02 AM CST (11/9)
Length of Visible Light 11h 32m
Length of Day
10h 41m
Waxing Gibbous, 99% of the Moon is Illuminated
Nov 9
Waxing Gibbous
Nov 10
Full
Nov 18
Last Quarter
Nov 25
New
Dec 2
First Quarter

Hourly Weather History & Observations

Time (CST) Temp. Dew Point Humidity Pressure Visibility Wind Dir Wind Speed Gust Speed Precip Events Conditions
12:53 AM 53.1 °F 50.0 °F 89% 30.10 in 10.0 mi Calm Calm - N/A   Clear
1:53 AM 52.0 °F 50.0 °F 93% 30.10 in 10.0 mi Calm Calm - N/A   Mostly Cloudy
2:53 AM 53.1 °F 51.1 °F 93% 30.10 in 10.0 mi Calm Calm - N/A   Clear
3:53 AM 52.0 °F 50.0 °F 93% 30.09 in 10.0 mi Calm Calm - N/A   Clear
4:53 AM 54.0 °F 52.0 °F 93% 30.10 in 10.0 mi Calm Calm - N/A   Mostly Cloudy
5:53 AM 52.0 °F 51.1 °F 97% 30.11 in 10.0 mi Calm Calm - N/A   Scattered Clouds
6:53 AM 55.9 °F 54.0 °F 93% 30.10 in 10.0 mi Calm Calm - N/A   Clear
7:53 AM 62.1 °F 57.0 °F 84% 30.11 in 10.0 mi South 4.6 mph - N/A   Clear
8:53 AM 64.9 °F 57.9 °F 78% 30.10 in 10.0 mi Variable 5.8 mph - N/A   Clear
9:53 AM 69.1 °F 59.0 °F 70% 30.09 in 10.0 mi SSE 6.9 mph - N/A   Clear
10:53 AM 70.0 °F 59.0 °F 68% 30.07 in 10.0 mi SSE 3.5 mph - N/A   Clear
11:53 AM 72.0 °F 59.0 °F 64% 30.05 in 10.0 mi SSW 5.8 mph - N/A   Clear
12:53 PM 73.0 °F 57.9 °F 59% 30.02 in 10.0 mi SSW 4.6 mph - N/A   Partly Cloudy
1:53 PM 73.9 °F 57.9 °F 57% 30.01 in 10.0 mi South 4.6 mph - N/A   Overcast
2:53 PM 73.0 °F 57.9 °F 59% 29.99 in 10.0 mi South 6.9 mph - N/A   Overcast
3:53 PM 73.0 °F 57.9 °F 59% 29.99 in 10.0 mi SSW 5.8 mph - N/A   Overcast
4:53 PM 69.1 °F 60.1 °F 73% 29.98 in 10.0 mi Calm Calm - N/A   Mostly Cloudy
5:53 PM 66.9 °F 60.1 °F 79% 29.98 in 10.0 mi Calm Calm - N/A   Overcast
6:53 PM 66.0 °F 62.1 °F 87% 30.00 in 10.0 mi NW 11.5 mph - 0.00 in Rain Light Rain
7:04 PM 66.2 °F 62.6 °F 88% 30.01 in 10.0 mi NW 9.2 mph - 0.00 in   Overcast
7:29 PM 64.4 °F 64.4 °F 100% 30.01 in 4.0 mi WNW 9.2 mph - 0.03 in Rain Heavy Rain
7:42 PM 62.6 °F 60.8 °F 94% 30.02 in 10.0 mi NW 20.7 mph 26.5 mph 0.03 in Rain Light Rain
7:53 PM 61.0 °F 59.0 °F 93% 30.02 in 6.0 mi NW 19.6 mph - 0.05 in Rain Rain
8:11 PM 57.2 °F 57.2 °F 100% 30.04 in 5.0 mi NW 18.4 mph 24.2 mph 0.04 in Rain Rain
8:23 PM 57.2 °F 55.4 °F 94% 30.05 in 2.5 mi NW 18.4 mph 28.8 mph 0.11 in Rain Heavy Rain
8:29 PM 55.4 °F 55.4 °F 100% 30.04 in 3.0 mi NW 17.3 mph 28.8 mph 0.13 in Rain Heavy Rain
8:37 PM 55.4 °F 55.4 °F 100% 30.04 in 4.0 mi NNW 18.4 mph 24.2 mph 0.16 in Rain Rain
8:53 PM 55.9 °F 55.0 °F 97% 30.05 in 4.0 mi NW 6.9 mph - 0.19 in Rain Light Rain
9:04 PM 55.4 °F 55.4 °F 100% 30.06 in 10.0 mi NW 6.9 mph - 0.00 in Rain Light Rain
9:20 PM 55.4 °F 55.4 °F 100% 30.06 in 5.0 mi NW 8.1 mph - 0.03 in Rain Rain
9:53 PM 55.9 °F 54.0 °F 93% 30.04 in 8.0 mi North 11.5 mph - 0.06 in Rain Light Rain
10:53 PM 57.0 °F 55.0 °F 93% 30.04 in 10.0 mi WNW 4.6 mph - 0.01 in Rain Light Rain
11:53 PM 57.0 °F 55.0 °F 93% 30.03 in 6.0 mi North 9.2 mph - 0.05 in Rain Light Rain